Regional Weather Roundup
Issued by NWS Little Rock, AR

Home | Current Version | Previous Version | Text Only | Print | Product List | Glossary On
Versions: 1 2 3 4 5 6 7 8 9 10 11 12 13 14 15 16 17 18 19 20 21 22 23 24 25 26 27 28 29 30 31 32 33 34 35 36 37 38 39 40 41 42 43 44 45 46 47 48
000
ASUS44 KLZK 050505
RWRLZK

WEATHER ROUNDUP FOR ARKANSAS
NATIONAL WEATHER SERVICE LITTLE ROCK AR
1200 AM CDT TUE MAY 05 2015

NOTE: "FAIR" INDICATES FEW OR NO CLOUDS BELOW 12,000 FEET WITH NO
SIGNIFICANT WEATHER AND/OR OBSTRUCTIONS TO VISIBILITY.

ARZ001-003-010-029-050600-
NORTHWEST ARKANSAS

CITY           SKY/WX    TMP DP  RH WIND       PRES   REMARKS
FAYETTEVILLE   CLEAR     57  56  96 CALM      30.14R
FORT SMITH     CLEAR     67  55  65 CALM      30.10R
HARRISON       CLEAR     60  54  80 CALM      30.17R
BENTONVILLE    CLEAR    N/A N/A N/A CALM      30.15R
ROGERS         CLEAR     62  55  77 CALM      30.16R
SILOAM SPGS    CLEAR     63  50  63 SE5       30.15R
HIGHFILL       CLEAR     65  54  67 SE6       30.14R
$$

ARZ004-005-016-050600-
NORTH CENTRAL ARKANSAS

CITY           SKY/WX    TMP DP  RH WIND       PRES   REMARKS
BATESVILLE     CLEAR     63  54  72 CALM      30.15R
FLIPPIN        CLEAR     64  55  72 CALM      30.14R
MTN HOME       CLEAR     65  55  70 CALM      30.15R
$$

ARZ040-041-050600-
WEST CENTRAL ARKANSAS

CITY           SKY/WX    TMP DP  RH WIND       PRES   REMARKS
MENA           CLEAR     61  55  82 CALM      30.13R
MOUNT IDA      CLEAR     70  55  59 SE5       30.10S
$$

ARZ009-017-025-026-028-050600-
NORTHEAST ARKANSAS

CITY           SKY/WX    TMP DP  RH WIND       PRES   REMARKS
CORNING          N/A     64  52  63 SE6       30.16R
JONESBORO      CLEAR     59  53  80 CALM      30.16R
NEWPORT        CLEAR     67  52  58 SE3       30.17R
WALNUT RIDGE   CLEAR     64  48  55 SE8       30.15R
BLYTHEVILLE    CLEAR     68  52  56 S8        30.17R
$$

ARZ022-023-033-042-044-050600-
CENTRAL ARKANSAS

CITY           SKY/WX    TMP DP  RH WIND       PRES   REMARKS
LITTLE ROCK    CLEAR     67  55  65 S5        30.14R
N LITTLE ROCK  CLEAR     71  56  61 S7        30.14R
SEARCY         CLEAR     61  57  87 CALM      30.16R
HOT SPRINGS    CLEAR     69  56  62 SE5       30.13R
RUSSELLVILLE   CLEAR     62  58  86 CALM      30.13R
CLINTON        FAIR      59  57  94 CALM      30.16R
$$

ARZ036-050600-
EAST ARKANSAS

CITY           SKY/WX    TMP DP  RH WIND       PRES   REMARKS
WEST MEMPHIS   CLEAR     65  58  78 SE5       30.16R
$$

ARZ050-053-066-070-073-050600-
SOUTHWEST ARKANSAS

CITY           SKY/WX    TMP DP  RH WIND       PRES   REMARKS
ARKADELPHIA    FAIR      64  64 100 CALM      30.12S
CAMDEN         PTCLDY    68  57  68 CALM      30.12R
TEXARKANA      PTCLDY    69  59  70 SE6       30.10R
EL DORADO      CLOUDY    69  62  78 SE6       30.13R
DE QUEEN       CLEAR     62  59  90 E3        30.08S
$$

ARZ056-057-069-050600-
SOUTHEAST ARKANSAS

CITY           SKY/WX    TMP DP  RH WIND       PRES   REMARKS
PINE BLUFF     CLEAR     67  57  70 CALM      30.13S
STUTTGART      MOCLDY    70  54  56 SE6       30.15R
MONTICELLO     CLEAR     70  60  70 CALM      30.13S

$$





USA.gov is the U.S. government's official web portal to all federal, state and local government web resources and services.